BAW2X KSFO-EGLL

Flight info

Callsign BAW2X
Flight time N/A
Altitude 35000
Route SNTNA2 ORRCA DCT FMG DCT TOYBE J158 MLD DCT KU81Q DCT KU87S DCT KU03U DCT KU09W DCT KP15Y DCT 49N100W 5430N09000W/N0500F370 59N080W 62N070W DCT TEFFO DCT KAGLY/M084F370 DCT CLAVY DCT 65N050W/M085F390 6430N04000W 63N030W 6030N02000W DCT GOMUP/N0488F390 DCT GINGA DCT KELLY L10 WAL UY53 NUGRA
Aircraft A388/J-SADE2E3FGHIJ3J4J5M1RWXY/LB1D1

Departure

Time 2026-05-05 01:19
Airport San Francisco International Airport (KSFO)

Arrival

Time N/A
Airport London Heathrow Airport (EGLL)
Time Latitude Longitude Altitude Speed Heading
2026-05-05 00:32 37.61157 -122.38938 27 ft 0 kts 298°
2026-05-05 00:59 37.61156 -122.38936 27 ft 2 kts 298°
2026-05-05 00:59 37.61144 -122.38907 25 ft 4 kts 297°
2026-05-05 00:59 37.61133 -122.38880 26 ft 4 kts 290°
2026-05-05 00:59 37.61130 -122.38854 27 ft 4 kts 258°
2026-05-05 01:00 37.61139 -122.38835 26 ft 4 kts 218°
2026-05-05 01:00 37.61161 -122.38820 24 ft 4 kts 205°
2026-05-05 01:00 37.61177 -122.38810 25 ft 1 kts 207°
2026-05-05 01:00 37.61179 -122.38808 26 ft 0 kts 207°
2026-05-05 01:03 37.61178 -122.38809 26 ft 1 kts 207°
2026-05-05 01:04 37.61160 -122.38821 24 ft 5 kts 207°
2026-05-05 01:04 37.61077 -122.38875 27 ft 8 kts 205°
2026-05-05 01:04 37.61032 -122.38874 27 ft 7 kts 146°
2026-05-05 01:05 37.60995 -122.38822 27 ft 10 kts 124°
2026-05-05 01:05 37.60955 -122.38733 27 ft 13 kts 118°
2026-05-05 01:05 37.60919 -122.38648 27 ft 7 kts 117°
2026-05-05 01:05 37.60910 -122.38627 27 ft 0 kts 117°
2026-05-05 01:06 37.60908 -122.38622 27 ft 2 kts 117°
2026-05-05 01:07 37.60896 -122.38592 27 ft 6 kts 117°
2026-05-05 01:07 37.60880 -122.38532 27 ft 7 kts 86°
2026-05-05 01:07 37.60907 -122.38488 27 ft 7 kts 25°
2026-05-05 01:07 37.60944 -122.38450 27 ft 7 kts 72°
2026-05-05 01:08 37.60936 -122.38394 27 ft 8 kts 125°
2026-05-05 01:08 37.60896 -122.38323 27 ft 12 kts 121°
2026-05-05 01:08 37.60874 -122.38212 27 ft 15 kts 103°
2026-05-05 01:08 37.60828 -122.38081 27 ft 18 kts 117°
2026-05-05 01:09 37.60770 -122.37942 27 ft 10 kts 118°
2026-05-05 01:09 37.60744 -122.37863 27 ft 9 kts 83°
2026-05-05 01:09 37.60785 -122.37808 27 ft 10 kts 26°
2026-05-05 01:09 37.60853 -122.37765 27 ft 12 kts 26°
2026-05-05 01:10 37.60931 -122.37715 27 ft 13 kts 27°
2026-05-05 01:10 37.61017 -122.37657 27 ft 15 kts 29°
2026-05-05 01:10 37.61111 -122.37593 27 ft 16 kts 27°
2026-05-05 01:10 37.61209 -122.37529 27 ft 17 kts 27°
2026-05-05 01:11 37.61314 -122.37460 27 ft 17 kts 27°
2026-05-05 01:11 37.61423 -122.37389 27 ft 18 kts 27°
2026-05-05 01:11 37.61527 -122.37302 27 ft 18 kts 52°
2026-05-05 01:11 37.61558 -122.37150 27 ft 19 kts 101°
2026-05-05 01:12 37.61499 -122.36989 27 ft 21 kts 119°
2026-05-05 01:12 37.61440 -122.36889 27 ft 22 kts 132°
2026-05-05 01:12 37.61341 -122.36731 27 ft 24 kts 117°
2026-05-05 01:12 37.61275 -122.36568 27 ft 14 kts 117°
2026-05-05 01:13 37.61225 -122.36447 27 ft 17 kts 117°
2026-05-05 01:13 37.61167 -122.36308 27 ft 16 kts 118°
2026-05-05 01:13 37.61110 -122.36173 27 ft 19 kts 118°
2026-05-05 01:13 37.61056 -122.36047 27 ft 14 kts 112°
2026-05-05 01:14 37.61066 -122.35940 27 ft 9 kts 52°
2026-05-05 01:14 37.61086 -122.35917 27 ft 0 kts 31°
2026-05-05 01:17 37.61093 -122.35911 27 ft 4 kts 31°
2026-05-05 01:17 37.61129 -122.35885 27 ft 8 kts 28°
2026-05-05 01:17 37.61186 -122.35846 27 ft 11 kts 27°
2026-05-05 01:17 37.61261 -122.35797 27 ft 13 kts 28°
2026-05-05 01:18 37.61328 -122.35752 27 ft 8 kts 24°
2026-05-05 01:18 37.61369 -122.35761 27 ft 6 kts 310°
2026-05-05 01:18 37.61380 -122.35784 27 ft 0 kts 298°
2026-05-05 01:18 37.61414 -122.35862 27 ft 37 kts 298°
2026-05-05 01:19 37.61656 -122.36441 27 ft 108 kts 298°
2026-05-05 01:19 37.62090 -122.37477 28 ft 154 kts 297°
2026-05-05 01:19 37.62620 -122.38734 333 ft 161 kts 297°
2026-05-05 01:19 37.63139 -122.39986 787 ft 163 kts 296°
2026-05-05 01:20 37.63659 -122.41277 1206 ft 165 kts 295°
2026-05-05 01:20 37.64174 -122.42566 1719 ft 165 kts 295°
2026-05-05 01:20 37.64712 -122.43913 1903 ft 179 kts 296°
2026-05-05 01:20 37.65311 -122.45342 2014 ft 192 kts 297°
2026-05-05 01:21 37.65944 -122.46869 2103 ft 200 kts 296°
2026-05-05 01:21 37.66628 -122.48518 2256 ft 222 kts 297°
2026-05-05 01:21 37.67394 -122.50320 2538 ft 243 kts 299°
2026-05-05 01:21 37.68592 -122.51864 3182 ft 253 kts 328°
2026-05-05 01:22 37.70295 -122.52530 3839 ft 266 kts 355°
2026-05-05 01:22 37.72179 -122.52589 4533 ft 274 kts 358°
2026-05-05 01:22 37.74096 -122.52631 5367 ft 274 kts 359°
2026-05-05 01:22 37.75993 -122.52689 6122 ft 278 kts 359°
2026-05-05 01:23 37.77933 -122.52749 6892 ft 278 kts
2026-05-05 01:23 37.79806 -122.52214 7608 ft 277 kts 28°
2026-05-05 01:23 37.81263 -122.50679 8457 ft 274 kts 54°
2026-05-05 01:23 37.82118 -122.48534 9201 ft 275 kts 66°
2026-05-05 01:24 37.82861 -122.46267 9823 ft 280 kts 65°
2026-05-05 01:24 37.83662 -122.44013 10390 ft 286 kts 60°
2026-05-05 01:24 37.84814 -122.41871 10554 ft 304 kts 49°
2026-05-05 01:24 37.86269 -122.39829 10758 ft 321 kts 47°
2026-05-05 01:25 37.87788 -122.37673 11060 ft 332 kts 48°
2026-05-05 01:25 37.89310 -122.35485 11691 ft 332 kts 49°
2026-05-05 01:25 37.90839 -122.33277 12268 ft 333 kts 48°
2026-05-05 01:25 37.92359 -122.31083 12790 ft 338 kts 49°
2026-05-05 01:26 37.93916 -122.28835 13378 ft 339 kts 49°
2026-05-05 01:26 37.95485 -122.26569 13905 ft 342 kts 49°
2026-05-05 01:26 37.97054 -122.24300 14403 ft 344 kts 49°
2026-05-05 01:26 37.98618 -122.22039 14928 ft 345 kts 49°
2026-05-05 01:27 38.00206 -122.19740 15444 ft 347 kts 49°
2026-05-05 01:27 38.01796 -122.17439 16012 ft 346 kts 49°
2026-05-05 01:27 38.03387 -122.15134 16560 ft 347 kts 49°
2026-05-05 01:27 38.04978 -122.12827 17080 ft 348 kts 50°
2026-05-05 01:28 38.06578 -122.10506 17618 ft 349 kts 50°
2026-05-05 01:28 38.08163 -122.08203 18124 ft 350 kts 50°
2026-05-05 01:28 38.09767 -122.05872 18566 ft 351 kts 50°
2026-05-05 01:28 38.11379 -122.03528 19014 ft 351 kts 50°
2026-05-05 01:29 38.12988 -122.01186 19476 ft 352 kts 50°
2026-05-05 01:29 38.14601 -121.98838 19937 ft 352 kts 50°
2026-05-05 01:29 38.16212 -121.96489 20405 ft 353 kts 50°
2026-05-05 01:29 38.17810 -121.94158 20855 ft 353 kts 50°
2026-05-05 01:30 38.19427 -121.91798 21295 ft 354 kts 50°
2026-05-05 01:30 38.21046 -121.89433 21777 ft 355 kts 50°
2026-05-05 01:30 38.22671 -121.87058 22202 ft 356 kts 50°
2026-05-05 01:30 38.24298 -121.84678 22646 ft 356 kts 50°
2026-05-05 01:31 38.25909 -121.82319 23058 ft 357 kts 50°
2026-05-05 01:31 38.27545 -121.79922 23482 ft 358 kts 50°
2026-05-05 01:31 38.29190 -121.77512 23793 ft 360 kts 50°
2026-05-05 01:31 38.30844 -121.75085 24102 ft 362 kts 50°
2026-05-05 01:32 38.32499 -121.72655 24411 ft 364 kts 50°
2026-05-05 01:32 38.34143 -121.70238 24718 ft 366 kts 50°
2026-05-05 01:32 38.35821 -121.67770 25015 ft 368 kts 50°
2026-05-05 01:32 38.37503 -121.65294 25341 ft 370 kts 50°
2026-05-05 01:33 38.39199 -121.62798 25672 ft 372 kts 50°
2026-05-05 01:33 38.40876 -121.60325 26003 ft 374 kts 50°
2026-05-05 01:33 38.42582 -121.57808 26344 ft 376 kts 50°
2026-05-05 01:33 38.44296 -121.55267 26679 ft 378 kts 52°
2026-05-05 01:34 38.45891 -121.52587 27023 ft 380 kts 54°
2026-05-05 01:34 38.47488 -121.49857 27221 ft 387 kts 54°
2026-05-05 01:34 38.49121 -121.47092 27556 ft 389 kts 54°
2026-05-05 01:34 38.50758 -121.44324 27937 ft 391 kts 54°
2026-05-05 01:35 38.52401 -121.41541 28291 ft 394 kts 54°
2026-05-05 01:35 38.54055 -121.38734 28634 ft 396 kts 54°
2026-05-05 01:35 38.55689 -121.35952 29141 ft 395 kts 54°
2026-05-05 01:35 38.57341 -121.33140 29543 ft 397 kts 54°
2026-05-05 01:36 38.59007 -121.30298 29869 ft 400 kts 54°
2026-05-05 01:36 38.60684 -121.27435 30222 ft 402 kts 54°
2026-05-05 01:36 38.62371 -121.24553 30541 ft 405 kts 54°
2026-05-05 01:36 38.64072 -121.21646 30685 ft 412 kts 54°
2026-05-05 01:37 38.65796 -121.18696 30938 ft 415 kts 54°
2026-05-05 01:37 38.67508 -121.15764 31287 ft 417 kts 54°
2026-05-05 01:37 38.69251 -121.12776 31590 ft 420 kts 53°
2026-05-05 01:37 38.71001 -121.09775 31907 ft 422 kts 53°
2026-05-05 01:38 38.72764 -121.06747 32196 ft 424 kts 53°
2026-05-05 01:38 38.74535 -121.03702 32516 ft 427 kts 53°
2026-05-05 01:38 38.76316 -121.00638 32803 ft 429 kts 53°
2026-05-05 01:38 38.78110 -120.97550 33105 ft 432 kts 53°
2026-05-05 01:39 38.79889 -120.94483 33347 ft 436 kts 53°
2026-05-05 01:39 38.81711 -120.91340 33539 ft 441 kts 53°
2026-05-05 01:39 38.83546 -120.88169 33847 ft 443 kts 53°
2026-05-05 01:39 38.85391 -120.84980 34144 ft 445 kts 53°
2026-05-05 01:40 38.87246 -120.81770 34326 ft 449 kts 53°
2026-05-05 01:40 38.89089 -120.78577 34528 ft 452 kts 53°
2026-05-05 01:40 38.90973 -120.75311 34771 ft 454 kts 53°
2026-05-05 01:40 38.92857 -120.72040 35018 ft 457 kts 53°
2026-05-05 01:41 38.96655 -120.65438 35037 ft 458 kts 53°